User: anonymous   Login
Location: Ellerstadt
(49.4644°N, 8.2615°E)
Time: 01:37:23
(UTC+00:00)
Language:

COSMO-SKYMED 1 - Orbit

View from above orbital plane
View from above orbital plane
View from above satellite
View from above satellite

Ground track
Ground track

The orbit data is extracted from the following two-line orbital elements,

1 31598U 07023A   21127.52837305 -.00000082  00000-0 -37608-5 0  9995
2 31598  97.8902 312.0020 0001510  88.2339 271.9052 14.82151568752833
Epoch (UTC): 07 May 2021 12:40:51
Eccentricity: 0.0001510
inclination: 97.8902°
perigee height: 621 km
apogee height: 623 km
right ascension of ascending node: 312.0020°
argument of perigee: 88.2339°
revolutions per day: 14.82151568
mean anomaly at epoch: 271.9052°
orbit number at epoch: 75283

The dashed part of the orbit path shows where the satellite is in the earth's shadow,  

DLR